Форум фильмов, сериалов и мультфильмов

Объявление

Информация о пользователе

Привет, Гость! Войдите или зарегистрируйтесь.



Игры

Тем 961 страница 990 из 2847

Тема Ответов Просмотров Последнее сообщение
0 4 21.12.2018 21:34:52  jockers gamers
0 14 21.12.2018 18:11:26  Bo0mB0om
0 17 21.12.2018 17:20:26  Bo0mB0om
0 8 21.12.2018 00:49:28  jockers gamers
0 7 19.12.2018 23:23:48  jockers gamers
0 6 19.12.2018 23:19:18  jockers gamers
0 17 19.12.2018 23:02:09  Bo0mB0om
0 6 19.12.2018 22:47:03  jockers gamers
0 15 19.12.2018 22:41:47  Bo0mB0om
0 6 19.12.2018 22:40:47  jockers gamers
971 The Watchmaker (2018) CODEX  jockers gamers
0 7 19.12.2018 22:37:22  jockers gamers
0 41 19.12.2018 22:09:37  jockers gamers
0 12 19.12.2018 21:58:58  jockers gamers
974 Lake Ridden (2018) CODEX  jockers gamers
0 7 19.12.2018 21:57:04  jockers gamers
0 10 19.12.2018 21:49:32  jockers gamers
976 Yet Another Tower Defence-PLAZA  jockers gamers
0 8 19.12.2018 21:45:18  jockers gamers
0 4 19.12.2018 21:07:51  jockers gamers
978 The Subject v1.1.4 (2018) PLAZA  jockers gamers
0 8 19.12.2018 21:04:29  jockers gamers
0 6 19.12.2018 21:04:12  jockers gamers
0 15 18.12.2018 22:29:26  jockers gamers
0 4 18.12.2018 22:26:16  jockers gamers
0 4 18.12.2018 22:16:10  jockers gamers
0 8 18.12.2018 22:12:36  jockers gamers
0 5 18.12.2018 22:05:24  jockers gamers
0 9 18.12.2018 22:01:59  jockers gamers
986 Kabounce v1.28 (2018) PLAZA  jockers gamers
0 5 18.12.2018 21:57:11  jockers gamers
987 Led It Rain (2018) PLAZA  jockers gamers
0 11 18.12.2018 21:53:54  jockers gamers
988 Telekinetic (2018) PLAZA  jockers gamers
0 10 18.12.2018 21:49:57  jockers gamers
0 12 18.12.2018 21:46:22  jockers gamers
990 The Subject v1.1.4 (2018) PLAZA  jockers gamers
0 3 18.12.2018 21:18:54  jockers gamers